Tracking 22780 objects as of 11-Apr-2021
HD Live streaming from Space Station
objects crossing your sky now

DELTA 1 R/B

Track DELTA 1 R/B now!
10-day predictions


NORAD ID: 3767
Int'l Code: 1969-016B
Perigee: 1,426.3 km
Apogee: 1,505.0 km
Inclination: 101.6 °
Period: 115.1 minutes
Semi major axis: 7836 km
RCS: 0.5861 m2 (medium)
Launch date: February 26, 1969
Source: United States (US)
Launch site: AIR FORCE EASTERN TEST RANGE (AFETR)

Note: This is a ROCKET BODY
aabbcc
Your satellite tracking list
Your tracking list is empty




NASA's NSSDC Master Catalog

Two Line Element Set (TLE):
1 03767U 69016B   21100.43782682 -.00000029  00000-0  93404-4 0  9995
2 03767 101.6005 158.0761 0050269  58.4838  12.2217 12.51433052379936
Source of the keplerian elements: AFSPC